Year,Month,Day,Hour,Minute,Value (Times are PST for temperature in C)
2018,09,29,00,00,10.70
2018,09,29,00,01,10.70
2018,09,29,00,02,10.70
2018,09,29,00,03,10.70
2018,09,29,00,04,10.70
2018,09,29,00,05,10.70
2018,09,29,00,06,10.70
2018,09,29,00,07,10.70
2018,09,29,00,08,10.70
2018,09,29,00,09,10.70
2018,09,29,00,10,10.70
2018,09,29,00,11,10.70
2018,09,29,00,12,10.60
2018,09,29,00,13,10.60
2018,09,29,00,14,10.60
2018,09,29,00,15,10.60
2018,09,29,00,16,10.60
2018,09,29,00,17,10.60
2018,09,29,00,18,10.60
2018,09,29,00,19,10.60
2018,09,29,00,20,10.60
2018,09,29,00,21,10.60
2018,09,29,00,22,10.60
2018,09,29,00,23,10.60
2018,09,29,00,24,10.60
2018,09,29,00,25,10.60
2018,09,29,00,26,10.60
2018,09,29,00,27,10.60
2018,09,29,00,28,10.50
2018,09,29,00,29,10.60
2018,09,29,00,30,10.50
2018,09,29,00,31,10.50
2018,09,29,00,32,10.50
2018,09,29,00,33,10.50
2018,09,29,00,34,10.50
2018,09,29,00,35,10.60
2018,09,29,00,36,10.60
2018,09,29,00,37,10.60
2018,09,29,00,38,10.60
2018,09,29,00,39,10.60
2018,09,29,00,40,10.60
2018,09,29,00,41,10.60
2018,09,29,00,42,10.60
2018,09,29,00,43,10.60
2018,09,29,00,44,10.60
2018,09,29,00,45,10.60
2018,09,29,00,46,10.60
2018,09,29,00,47,10.60
2018,09,29,00,48,10.50
2018,09,29,00,49,10.50
2018,09,29,00,50,10.50
2018,09,29,00,51,10.50
2018,09,29,00,52,10.40
2018,09,29,00,53,10.40
2018,09,29,00,54,10.40
2018,09,29,00,55,10.40
2018,09,29,00,56,10.40
2018,09,29,00,57,10.40
2018,09,29,00,58,10.40
2018,09,29,00,59,10.40
2018,09,29,01,00,10.30
2018,09,29,01,01,10.30
2018,09,29,01,02,10.30
2018,09,29,01,03,10.30
2018,09,29,01,04,10.30
2018,09,29,01,05,10.30
2018,09,29,01,06,10.30
2018,09,29,01,07,10.30
2018,09,29,01,08,10.30
2018,09,29,01,09,10.30
2018,09,29,01,10,10.30
2018,09,29,01,11,10.40
2018,09,29,01,12,10.40
2018,09,29,01,13,10.40
2018,09,29,01,14,10.40
2018,09,29,01,15,10.40
2018,09,29,01,16,10.40
2018,09,29,01,17,10.40
2018,09,29,01,18,10.40
2018,09,29,01,19,10.40
2018,09,29,01,20,10.40
2018,09,29,01,21,10.40
2018,09,29,01,22,10.40
2018,09,29,01,23,10.40
2018,09,29,01,24,10.40
2018,09,29,01,25,10.40
2018,09,29,01,26,10.40
2018,09,29,01,27,10.40
2018,09,29,01,28,10.50
2018,09,29,01,29,10.50
2018,09,29,01,30,10.50
2018,09,29,01,31,10.50
2018,09,29,01,32,10.50
2018,09,29,01,33,10.50
2018,09,29,01,34,10.50
2018,09,29,01,35,10.50
2018,09,29,01,36,10.50
2018,09,29,01,37,10.50
2018,09,29,01,38,10.50
2018,09,29,01,39,10.50
2018,09,29,01,40,10.50
2018,09,29,01,41,10.40
2018,09,29,01,42,10.40
2018,09,29,01,43,10.40
2018,09,29,01,44,10.40
2018,09,29,01,45,10.40
2018,09,29,01,46,10.40
2018,09,29,01,47,10.40
2018,09,29,01,48,10.40
2018,09,29,01,49,10.40
2018,09,29,01,50,10.40
2018,09,29,01,51,10.40
2018,09,29,01,52,10.40
2018,09,29,01,53,10.40
2018,09,29,01,54,10.40
2018,09,29,01,55,10.40
2018,09,29,01,56,10.40
2018,09,29,01,57,10.40
2018,09,29,01,58,10.40
2018,09,29,01,59,10.40
2018,09,29,02,00,10.40
2018,09,29,02,01,10.40
2018,09,29,02,02,10.40
2018,09,29,02,03,10.40
2018,09,29,02,04,10.40
2018,09,29,02,05,10.40
2018,09,29,02,06,10.40
2018,09,29,02,07,10.40
2018,09,29,02,08,10.40
2018,09,29,02,09,10.40
2018,09,29,02,10,10.40
2018,09,29,02,11,10.40
2018,09,29,02,12,10.40
2018,09,29,02,13,10.40
2018,09,29,02,14,10.40
2018,09,29,02,15,10.40
2018,09,29,02,16,10.40
2018,09,29,02,17,10.30
2018,09,29,02,18,10.30
2018,09,29,02,19,10.30
2018,09,29,02,20,10.30
2018,09,29,02,21,10.30
2018,09,29,02,22,10.30
2018,09,29,02,23,10.30
2018,09,29,02,24,10.30
2018,09,29,02,25,10.30
2018,09,29,02,26,10.30
2018,09,29,02,27,10.30
2018,09,29,02,28,10.30
2018,09,29,02,29,10.30
2018,09,29,02,30,10.30
2018,09,29,02,31,10.30
2018,09,29,02,32,10.30
2018,09,29,02,33,10.30
2018,09,29,02,34,10.30
2018,09,29,02,35,10.30
2018,09,29,02,36,10.30
2018,09,29,02,37,10.30
2018,09,29,02,38,10.30
2018,09,29,02,39,10.30
2018,09,29,02,40,10.30
2018,09,29,02,41,10.30
2018,09,29,02,42,10.30
2018,09,29,02,43,10.30
2018,09,29,02,44,10.30
2018,09,29,02,45,10.30
2018,09,29,02,46,10.30
2018,09,29,02,47,10.30
2018,09,29,02,48,10.30
2018,09,29,02,49,10.30
2018,09,29,02,50,10.30
2018,09,29,02,51,10.30
2018,09,29,02,52,10.30
2018,09,29,02,53,10.20
2018,09,29,02,54,10.20
2018,09,29,02,55,10.20
2018,09,29,02,56,10.20
2018,09,29,02,57,10.20
2018,09,29,02,58,10.20
2018,09,29,02,59,10.20
2018,09,29,03,00,10.20
2018,09,29,03,01,10.20
2018,09,29,03,02,10.20
2018,09,29,03,03,10.20
2018,09,29,03,04,10.20
2018,09,29,03,05,10.20
2018,09,29,03,06,10.20
2018,09,29,03,07,10.20
2018,09,29,03,08,10.20
2018,09,29,03,09,10.20
2018,09,29,03,10,10.20
2018,09,29,03,11,10.20
2018,09,29,03,12,10.20
2018,09,29,03,13,10.20
2018,09,29,03,14,10.20
2018,09,29,03,15,10.20
2018,09,29,03,16,10.10
2018,09,29,03,17,10.10
2018,09,29,03,18,10.10
2018,09,29,03,19,10.10
2018,09,29,03,20,10.10
2018,09,29,03,21,10.10
2018,09,29,03,22,10.10
2018,09,29,03,23,10.10
2018,09,29,03,24,10.10
2018,09,29,03,25,10.10
2018,09,29,03,26,10.10
2018,09,29,03,27,10.10
2018,09,29,03,28,10.10
2018,09,29,03,29,10.10
2018,09,29,03,30,10.10
2018,09,29,03,31,10.10
2018,09,29,03,32,10.10
2018,09,29,03,33,10.10
2018,09,29,03,34,10.10
2018,09,29,03,35,10.10
2018,09,29,03,36,10.10
2018,09,29,03,37,10.10
2018,09,29,03,38,10.10
2018,09,29,03,39,10.10
2018,09,29,03,40,10.10
2018,09,29,03,41,10.10
2018,09,29,03,42,10.10
2018,09,29,03,43,10.10
2018,09,29,03,44,10.10
2018,09,29,03,45,10.10
2018,09,29,03,46,10.10
2018,09,29,03,47,10.10
2018,09,29,03,48,10.10
2018,09,29,03,49,10.10
2018,09,29,03,50,10.10
2018,09,29,03,51,10.10
2018,09,29,03,52,10.10
2018,09,29,03,53,10.10
2018,09,29,03,54,10.10
2018,09,29,03,55,10.10
2018,09,29,03,56,10.10
2018,09,29,03,57,10.10
2018,09,29,03,58,10.10
2018,09,29,03,59,10.10
2018,09,29,04,00,10.10
2018,09,29,04,01,10.10
2018,09,29,04,02,10.10
2018,09,29,04,03,10.10
2018,09,29,04,04,10.20
2018,09,29,04,05,10.20
2018,09,29,04,06,10.20
2018,09,29,04,07,10.20
2018,09,29,04,08,10.20
2018,09,29,04,09,10.20
2018,09,29,04,10,10.20
2018,09,29,04,11,10.20
2018,09,29,04,12,10.20
2018,09,29,04,13,10.30
2018,09,29,04,14,10.30
2018,09,29,04,15,10.30
2018,09,29,04,16,10.30
2018,09,29,04,17,10.40
2018,09,29,04,18,10.40
2018,09,29,04,19,10.50
2018,09,29,04,20,10.50
2018,09,29,04,21,10.60
2018,09,29,04,22,10.60
2018,09,29,04,23,10.70
2018,09,29,04,24,10.70
2018,09,29,04,25,10.80
2018,09,29,04,26,10.80
2018,09,29,04,27,10.80
2018,09,29,04,28,10.80
2018,09,29,04,29,10.80
2018,09,29,04,30,10.90
2018,09,29,04,31,11.00
2018,09,29,04,32,11.10
2018,09,29,04,33,11.20
2018,09,29,04,34,11.20
2018,09,29,04,35,11.30
2018,09,29,04,36,11.40
2018,09,29,04,37,11.50
2018,09,29,04,38,11.60
2018,09,29,04,39,11.70
2018,09,29,04,40,11.90
2018,09,29,04,41,12.10
2018,09,29,04,42,12.20
2018,09,29,04,43,12.30
2018,09,29,04,44,12.40
2018,09,29,04,45,12.40
2018,09,29,04,46,12.40
2018,09,29,04,47,12.40
2018,09,29,04,48,12.40
2018,09,29,04,49,12.40
2018,09,29,04,50,12.40
2018,09,29,04,51,12.40
2018,09,29,04,52,12.40
2018,09,29,04,53,12.40
2018,09,29,04,54,12.40
2018,09,29,04,55,12.40
2018,09,29,04,56,12.40
2018,09,29,04,57,12.40
2018,09,29,04,58,12.40
2018,09,29,04,59,12.40
2018,09,29,05,00,12.40
2018,09,29,05,01,12.40
2018,09,29,05,02,12.40
2018,09,29,05,03,12.40
2018,09,29,05,04,12.40
2018,09,29,05,05,12.50
2018,09,29,05,06,12.50
2018,09,29,05,07,12.50
2018,09,29,05,08,12.50
2018,09,29,05,09,12.50
2018,09,29,05,10,12.60
2018,09,29,05,11,12.60
2018,09,29,05,12,12.60
2018,09,29,05,13,12.60
2018,09,29,05,14,12.60
2018,09,29,05,15,12.70
2018,09,29,05,16,12.70
2018,09,29,05,17,12.80
2018,09,29,05,18,12.80
2018,09,29,05,19,12.90
2018,09,29,05,20,13.00
2018,09,29,05,21,13.00
2018,09,29,05,22,13.10
2018,09,29,05,23,13.10
2018,09,29,05,24,13.20
2018,09,29,05,25,13.20
2018,09,29,05,26,13.20
2018,09,29,05,27,13.20
2018,09,29,05,28,13.20
2018,09,29,05,29,13.30
2018,09,29,05,30,13.40
2018,09,29,05,31,13.50
2018,09,29,05,32,13.50
2018,09,29,05,33,13.60
2018,09,29,05,34,13.60
2018,09,29,05,35,13.60
2018,09,29,05,36,13.60
2018,09,29,05,37,13.60
2018,09,29,05,38,13.70
2018,09,29,05,39,13.80
2018,09,29,05,40,13.80
2018,09,29,05,41,13.80
2018,09,29,05,42,13.80
2018,09,29,05,43,13.90
2018,09,29,05,44,13.90
2018,09,29,05,45,14.00
2018,09,29,05,46,14.10
2018,09,29,05,47,14.20
2018,09,29,05,48,14.20
2018,09,29,05,49,14.30
2018,09,29,05,50,14.40
2018,09,29,05,51,14.40
2018,09,29,05,52,14.50
2018,09,29,05,53,14.50
2018,09,29,05,54,14.60
2018,09,29,05,55,14.60
2018,09,29,05,56,14.60
2018,09,29,05,57,14.60
2018,09,29,05,58,14.70
2018,09,29,05,59,14.70
2018,09,29,06,00,14.70
2018,09,29,06,01,14.60
2018,09,29,06,02,14.60
2018,09,29,06,03,14.60
2018,09,29,06,04,14.60
2018,09,29,06,05,14.50
2018,09,29,06,06,14.50
2018,09,29,06,07,14.40
2018,09,29,06,08,14.40
2018,09,29,06,09,14.30
2018,09,29,06,10,14.30
2018,09,29,06,11,14.20
2018,09,29,06,12,14.20
2018,09,29,06,13,14.20
2018,09,29,06,14,14.10
2018,09,29,06,15,14.10
2018,09,29,06,16,14.00
2018,09,29,06,17,14.00
2018,09,29,06,18,13.90
2018,09,29,06,19,13.80
2018,09,29,06,20,13.80
2018,09,29,06,21,13.80
2018,09,29,06,22,13.80
2018,09,29,06,23,13.70
2018,09,29,06,24,13.70
2018,09,29,06,25,13.70
2018,09,29,06,26,13.70
2018,09,29,06,27,13.60
2018,09,29,06,28,13.60
2018,09,29,06,29,13.60
2018,09,29,06,30,13.50
2018,09,29,06,31,13.50
2018,09,29,06,32,13.50
2018,09,29,06,33,13.40
2018,09,29,06,34,13.40
2018,09,29,06,35,13.40
2018,09,29,06,36,13.50
2018,09,29,06,37,13.50
2018,09,29,06,38,13.50
2018,09,29,06,39,13.40
2018,09,29,06,40,13.40
2018,09,29,06,41,13.40
2018,09,29,06,42,13.40
2018,09,29,06,43,13.40
2018,09,29,06,44,13.40
2018,09,29,06,45,13.50
2018,09,29,06,46,13.60
2018,09,29,06,47,13.60
2018,09,29,06,48,13.60
2018,09,29,06,49,13.60
2018,09,29,06,50,13.70
2018,09,29,06,51,13.70
2018,09,29,06,52,13.80
2018,09,29,06,53,13.80
2018,09,29,06,54,13.80
2018,09,29,06,55,13.80
2018,09,29,06,56,13.90
2018,09,29,06,57,13.90
2018,09,29,06,58,13.90
2018,09,29,06,59,13.90
2018,09,29,07,00,13.90
2018,09,29,07,01,13.90
2018,09,29,07,02,13.90
2018,09,29,07,03,13.90
2018,09,29,07,04,13.90
2018,09,29,07,05,13.90
2018,09,29,07,06,13.80
2018,09,29,07,07,13.80
2018,09,29,07,08,13.90
2018,09,29,07,09,13.90
2018,09,29,07,10,13.90
2018,09,29,07,11,13.90
2018,09,29,07,12,13.90
2018,09,29,07,13,13.90
2018,09,29,07,14,13.90
2018,09,29,07,15,13.90
2018,09,29,07,16,13.90
2018,09,29,07,17,13.90
2018,09,29,07,18,13.90
2018,09,29,07,19,13.90
2018,09,29,07,20,14.00
2018,09,29,07,21,14.00
2018,09,29,07,22,14.00
2018,09,29,07,23,14.10
2018,09,29,07,24,14.10
2018,09,29,07,25,14.10
2018,09,29,07,26,14.20
2018,09,29,07,27,14.20
2018,09,29,07,28,14.20
2018,09,29,07,29,14.30
2018,09,29,07,30,14.30
2018,09,29,07,31,14.40
2018,09,29,07,32,14.40
2018,09,29,07,33,14.40
2018,09,29,07,34,14.40
2018,09,29,07,35,14.40
2018,09,29,07,36,14.50
2018,09,29,07,37,14.50
2018,09,29,07,38,14.50
2018,09,29,07,39,14.50
2018,09,29,07,40,14.50
2018,09,29,07,41,14.50
2018,09,29,07,42,14.40
2018,09,29,07,43,14.40
2018,09,29,07,44,14.50
2018,09,29,07,45,14.50
2018,09,29,07,46,14.50
2018,09,29,07,47,14.50
2018,09,29,07,48,14.50
2018,09,29,07,49,14.50
2018,09,29,07,50,14.50
2018,09,29,07,51,14.60
2018,09,29,07,52,14.60
2018,09,29,07,53,14.60
2018,09,29,07,54,14.60
2018,09,29,07,55,14.70
2018,09,29,07,56,14.70
2018,09,29,07,57,14.70
2018,09,29,07,58,14.80
2018,09,29,07,59,14.80
2018,09,29,08,00,14.90
2018,09,29,08,01,14.90
2018,09,29,08,02,15.00
2018,09,29,08,03,15.10
2018,09,29,08,04,15.10
2018,09,29,08,05,15.20
2018,09,29,08,06,15.20
2018,09,29,08,07,15.20
2018,09,29,08,08,15.30
2018,09,29,08,09,15.30
2018,09,29,08,10,15.30
2018,09,29,08,11,15.30
2018,09,29,08,12,15.40
2018,09,29,08,13,15.40
2018,09,29,08,14,15.50
2018,09,29,08,15,15.50
2018,09,29,08,16,15.60
2018,09,29,08,17,15.60
2018,09,29,08,18,15.60
2018,09,29,08,19,15.70
2018,09,29,08,20,15.70
2018,09,29,08,21,15.80
2018,09,29,08,22,15.80
2018,09,29,08,23,15.90
2018,09,29,08,24,15.90
2018,09,29,08,25,16.00
2018,09,29,08,26,16.10
2018,09,29,08,27,16.10
2018,09,29,08,28,16.10
2018,09,29,08,29,16.10
2018,09,29,08,30,16.20
2018,09,29,08,31,16.20
2018,09,29,08,32,16.30
2018,09,29,08,33,16.40
2018,09,29,08,34,16.50
2018,09,29,08,35,16.70
2018,09,29,08,36,16.80
2018,09,29,08,37,16.80
2018,09,29,08,38,16.90
2018,09,29,08,39,17.00
2018,09,29,08,40,17.10
2018,09,29,08,41,17.20
2018,09,29,08,42,17.30
2018,09,29,08,43,17.40
2018,09,29,08,44,17.40
2018,09,29,08,45,17.50
2018,09,29,08,46,17.50
2018,09,29,08,47,17.60
2018,09,29,08,48,17.60
2018,09,29,08,49,17.70
2018,09,29,08,50,17.70
2018,09,29,08,51,17.80
2018,09,29,08,52,17.80
2018,09,29,08,53,17.90
2018,09,29,08,54,17.90
2018,09,29,08,55,18.00
2018,09,29,08,56,18.00
2018,09,29,08,57,18.10
2018,09,29,08,58,18.20
2018,09,29,08,59,18.20
2018,09,29,09,00,18.20
2018,09,29,09,01,18.30
2018,09,29,09,02,18.30
2018,09,29,09,03,18.30
2018,09,29,09,04,18.30
2018,09,29,09,05,18.30
2018,09,29,09,06,18.30
2018,09,29,09,07,18.30
2018,09,29,09,08,18.30
2018,09,29,09,09,18.30
2018,09,29,09,10,18.30
2018,09,29,09,11,18.30
2018,09,29,09,12,18.30
2018,09,29,09,13,18.30
2018,09,29,09,14,18.30
2018,09,29,09,15,18.30
2018,09,29,09,16,18.30
2018,09,29,09,17,18.30
2018,09,29,09,18,18.30
2018,09,29,09,19,18.30
2018,09,29,09,20,18.30
2018,09,29,09,21,18.30
2018,09,29,09,22,18.30
2018,09,29,09,23,18.30
2018,09,29,09,24,18.30
2018,09,29,09,25,18.30
2018,09,29,09,26,18.30
2018,09,29,09,27,18.30
2018,09,29,09,28,18.30
2018,09,29,09,29,18.30
2018,09,29,09,30,18.30
2018,09,29,09,31,18.30
2018,09,29,09,32,18.30
2018,09,29,09,33,18.30
2018,09,29,09,34,18.30
2018,09,29,09,35,18.30
2018,09,29,09,36,18.30
2018,09,29,09,37,18.30
2018,09,29,09,38,18.30
2018,09,29,09,39,18.20
2018,09,29,09,40,18.20
2018,09,29,09,41,18.20
2018,09,29,09,42,18.20
2018,09,29,09,43,18.20
2018,09,29,09,44,18.20
2018,09,29,09,45,18.20
2018,09,29,09,46,18.20
2018,09,29,09,47,18.30
2018,09,29,09,48,18.30
2018,09,29,09,49,18.30
2018,09,29,09,50,18.30
2018,09,29,09,51,18.30
2018,09,29,09,52,18.20
2018,09,29,09,53,18.20
2018,09,29,09,54,18.20
2018,09,29,09,55,18.20
2018,09,29,09,56,18.20
2018,09,29,09,57,18.20
2018,09,29,09,58,18.20
2018,09,29,09,59,18.20
2018,09,29,10,00,18.20
2018,09,29,10,01,18.20
2018,09,29,10,02,18.20
2018,09,29,10,03,18.20
2018,09,29,10,04,18.20
2018,09,29,10,05,18.20
2018,09,29,10,06,18.20
2018,09,29,10,07,18.20
2018,09,29,10,08,18.20
2018,09,29,10,09,18.20
2018,09,29,10,10,18.20
2018,09,29,10,11,18.20
2018,09,29,10,12,18.20
2018,09,29,10,13,18.30
2018,09,29,10,14,18.30
2018,09,29,10,15,18.30
2018,09,29,10,16,18.30
2018,09,29,10,17,18.30
2018,09,29,10,18,18.30
2018,09,29,10,19,18.30
2018,09,29,10,20,18.30
2018,09,29,10,21,18.30
2018,09,29,10,22,18.40
2018,09,29,10,23,18.40
2018,09,29,10,24,18.40
2018,09,29,10,25,18.30
2018,09,29,10,26,18.30
2018,09,29,10,27,18.30
2018,09,29,10,28,18.30
2018,09,29,10,29,18.30
2018,09,29,10,30,18.30
2018,09,29,10,31,18.30
2018,09,29,10,32,18.30
2018,09,29,10,33,18.30
2018,09,29,10,34,18.30
2018,09,29,10,35,18.40
2018,09,29,10,36,18.40
2018,09,29,10,37,18.40
2018,09,29,10,38,18.40
2018,09,29,10,39,18.40
2018,09,29,10,40,18.40
2018,09,29,10,41,18.40
2018,09,29,10,42,18.40
2018,09,29,10,43,18.40
2018,09,29,10,44,18.40
2018,09,29,10,45,18.40
2018,09,29,10,46,18.50
2018,09,29,10,47,18.50
2018,09,29,10,48,18.50
2018,09,29,10,49,18.60
2018,09,29,10,50,18.60
2018,09,29,10,51,18.60
2018,09,29,10,52,18.60
2018,09,29,10,53,18.60
2018,09,29,10,54,18.60
2018,09,29,10,55,18.60
2018,09,29,10,56,18.70
2018,09,29,10,57,18.70
2018,09,29,10,58,18.70
2018,09,29,10,59,18.80
2018,09,29,11,00,18.80
2018,09,29,11,01,18.80
2018,09,29,11,02,18.90
2018,09,29,11,03,18.90
2018,09,29,11,04,18.90
2018,09,29,11,05,18.80
2018,09,29,11,06,18.80
2018,09,29,11,07,18.80
2018,09,29,11,08,18.80
2018,09,29,11,09,18.80
2018,09,29,11,10,18.80
2018,09,29,11,11,18.80
2018,09,29,11,12,18.80
2018,09,29,11,13,18.80
2018,09,29,11,14,18.80
2018,09,29,11,15,18.80
2018,09,29,11,16,18.80
2018,09,29,11,17,18.90
2018,09,29,11,18,18.90
2018,09,29,11,19,18.90
2018,09,29,11,20,18.90
2018,09,29,11,21,19.00
2018,09,29,11,22,19.00
2018,09,29,11,23,19.00
2018,09,29,11,24,18.90
2018,09,29,11,25,18.90
2018,09,29,11,26,18.90
2018,09,29,11,27,18.90
2018,09,29,11,28,18.90
2018,09,29,11,29,18.90
2018,09,29,11,30,18.90
2018,09,29,11,31,18.90
2018,09,29,11,32,18.90
2018,09,29,11,33,18.90
2018,09,29,11,34,19.00
2018,09,29,11,35,18.90
2018,09,29,11,36,18.90
2018,09,29,11,37,18.90
2018,09,29,11,38,18.90
2018,09,29,11,39,19.00
2018,09,29,11,40,19.00
2018,09,29,11,41,19.00
2018,09,29,11,42,19.00
2018,09,29,11,43,19.10
2018,09,29,11,44,19.00
2018,09,29,11,45,19.00
2018,09,29,11,46,18.90
2018,09,29,11,47,18.90
2018,09,29,11,48,18.90
2018,09,29,11,49,18.90
2018,09,29,11,50,18.90
2018,09,29,11,51,18.90
2018,09,29,11,52,18.80
2018,09,29,11,53,18.80
2018,09,29,11,54,18.80
2018,09,29,11,55,18.80
2018,09,29,11,56,18.80
2018,09,29,11,57,18.80
2018,09,29,11,58,18.80
2018,09,29,11,59,18.80
2018,09,29,12,00,18.80
2018,09,29,12,01,18.80
2018,09,29,12,02,18.80
2018,09,29,12,03,18.80
2018,09,29,12,04,18.70
2018,09,29,12,05,18.70
2018,09,29,12,06,18.70
2018,09,29,12,07,18.80
2018,09,29,12,08,18.80
2018,09,29,12,09,18.80
2018,09,29,12,10,18.80
2018,09,29,12,11,18.70
2018,09,29,12,12,18.70
2018,09,29,12,13,18.70
2018,09,29,12,14,18.70
2018,09,29,12,15,18.70
2018,09,29,12,16,18.60
2018,09,29,12,17,18.70
2018,09,29,12,18,18.70
2018,09,29,12,19,18.70
2018,09,29,12,20,18.70
2018,09,29,12,21,18.70
2018,09,29,12,22,18.70
2018,09,29,12,23,18.70
2018,09,29,12,24,18.70
2018,09,29,12,25,18.70
2018,09,29,12,26,18.70
2018,09,29,12,27,18.70
2018,09,29,12,28,18.80
2018,09,29,12,29,18.80
2018,09,29,12,30,18.90
2018,09,29,12,31,18.90
2018,09,29,12,32,19.00
2018,09,29,12,33,18.90
2018,09,29,12,34,18.90
2018,09,29,12,35,18.90
2018,09,29,12,36,18.90
2018,09,29,12,37,18.90
2018,09,29,12,38,18.90
2018,09,29,12,39,18.90
2018,09,29,12,40,18.90
2018,09,29,12,41,18.90
2018,09,29,12,42,18.90
2018,09,29,12,43,18.90
2018,09,29,12,44,18.90
2018,09,29,12,45,18.90
2018,09,29,12,46,18.90
2018,09,29,12,47,18.90
2018,09,29,12,48,18.90
2018,09,29,12,49,18.90
2018,09,29,12,50,18.90
2018,09,29,12,51,18.90
2018,09,29,12,52,18.90
2018,09,29,12,53,18.90
2018,09,29,12,54,18.80
2018,09,29,12,55,18.80
2018,09,29,12,56,18.80
2018,09,29,12,57,18.70
2018,09,29,12,58,18.70
2018,09,29,12,59,18.60
2018,09,29,13,00,18.60
2018,09,29,13,01,18.60
2018,09,29,13,02,18.60
2018,09,29,13,03,18.60
2018,09,29,13,04,18.60
2018,09,29,13,05,18.50
2018,09,29,13,06,18.50
2018,09,29,13,07,18.50
2018,09,29,13,08,18.40
2018,09,29,13,09,18.40
2018,09,29,13,10,18.40
2018,09,29,13,11,18.40
2018,09,29,13,12,18.30
2018,09,29,13,13,18.30
2018,09,29,13,14,18.30
2018,09,29,13,15,18.30
2018,09,29,13,16,18.20
2018,09,29,13,17,18.20
2018,09,29,13,18,18.20
2018,09,29,13,19,18.20
2018,09,29,13,20,18.20
2018,09,29,13,21,18.10
2018,09,29,13,22,18.10
2018,09,29,13,23,18.10
2018,09,29,13,24,18.10
2018,09,29,13,25,18.10
2018,09,29,13,26,18.10
2018,09,29,13,27,18.00
2018,09,29,13,28,18.00
2018,09,29,13,29,18.00
2018,09,29,13,30,17.90
2018,09,29,13,31,17.90
2018,09,29,13,32,17.90
2018,09,29,13,33,17.90
2018,09,29,13,34,17.90
2018,09,29,13,35,17.80
2018,09,29,13,36,17.80
2018,09,29,13,37,17.80
2018,09,29,13,38,17.80
2018,09,29,13,39,17.80
2018,09,29,13,40,17.80
2018,09,29,13,41,17.70
2018,09,29,13,42,17.70
2018,09,29,13,43,17.70
2018,09,29,13,44,17.70
2018,09,29,13,45,17.70
2018,09,29,13,46,17.70
2018,09,29,13,47,17.70
2018,09,29,13,48,17.70
2018,09,29,13,49,17.70
2018,09,29,13,50,17.70
2018,09,29,13,51,17.70
2018,09,29,13,52,17.70
2018,09,29,13,53,17.70
2018,09,29,13,54,17.70
2018,09,29,13,55,17.70
2018,09,29,13,56,17.70
2018,09,29,13,57,17.70
2018,09,29,13,58,17.70
2018,09,29,13,59,17.70
2018,09,29,14,00,17.70
2018,09,29,14,01,17.70
2018,09,29,14,02,17.70
2018,09,29,14,03,17.80
2018,09,29,14,04,17.80
2018,09,29,14,05,17.80
2018,09,29,14,06,17.80
2018,09,29,14,07,17.80
2018,09,29,14,08,17.80
2018,09,29,14,09,17.90
2018,09,29,14,10,17.90
2018,09,29,14,11,17.90
2018,09,29,14,12,17.90
2018,09,29,14,13,17.90
2018,09,29,14,14,17.90
2018,09,29,14,15,17.90
2018,09,29,14,16,17.90
2018,09,29,14,17,17.90
2018,09,29,14,18,17.90
2018,09,29,14,19,17.90
2018,09,29,14,20,17.90
2018,09,29,14,21,17.90
2018,09,29,14,22,18.00
2018,09,29,14,23,18.00
2018,09,29,14,24,18.10
2018,09,29,14,25,18.10
2018,09,29,14,26,18.10
2018,09,29,14,27,18.10
2018,09,29,14,28,18.10
2018,09,29,14,29,18.10
2018,09,29,14,30,18.10
2018,09,29,14,31,18.10
2018,09,29,14,32,18.20
2018,09,29,14,33,18.20
2018,09,29,14,34,18.20
2018,09,29,14,35,18.20
2018,09,29,14,36,18.20
2018,09,29,14,37,18.20
2018,09,29,14,38,18.20
2018,09,29,14,39,18.20
2018,09,29,14,40,18.20
2018,09,29,14,41,18.20
2018,09,29,14,42,18.20
2018,09,29,14,43,18.20
2018,09,29,14,44,18.20
2018,09,29,14,45,18.30
2018,09,29,14,46,18.30
2018,09,29,14,47,18.30
2018,09,29,14,48,18.30
2018,09,29,14,49,18.30
2018,09,29,14,50,18.30
2018,09,29,14,51,18.30
2018,09,29,14,52,18.30
2018,09,29,14,53,18.20
2018,09,29,14,54,18.20
2018,09,29,14,55,18.20
2018,09,29,14,56,18.20
2018,09,29,14,57,18.20
2018,09,29,14,58,18.10
2018,09,29,14,59,18.10
2018,09,29,15,00,18.10
2018,09,29,15,01,18.10
2018,09,29,15,02,18.10
2018,09,29,15,03,18.10
2018,09,29,15,04,18.00
2018,09,29,15,05,18.00
2018,09,29,15,06,18.00
2018,09,29,15,07,18.00
2018,09,29,15,08,18.00
2018,09,29,15,09,18.00
2018,09,29,15,10,18.00
2018,09,29,15,11,18.00
2018,09,29,15,12,18.00
2018,09,29,15,13,18.00
2018,09,29,15,14,18.00
2018,09,29,15,15,18.00
2018,09,29,15,16,18.00
2018,09,29,15,17,18.00
2018,09,29,15,18,18.00
2018,09,29,15,19,18.00
2018,09,29,15,20,18.00
2018,09,29,15,21,18.00
2018,09,29,15,22,18.00
2018,09,29,15,23,18.00
2018,09,29,15,24,18.00
2018,09,29,15,25,17.90
2018,09,29,15,26,17.90
2018,09,29,15,27,18.00
2018,09,29,15,28,18.00
2018,09,29,15,29,18.00
2018,09,29,15,30,18.00
2018,09,29,15,31,17.90
2018,09,29,15,32,17.90
2018,09,29,15,33,17.90
2018,09,29,15,34,17.90
2018,09,29,15,35,17.90
2018,09,29,15,36,17.90
2018,09,29,15,37,17.90
2018,09,29,15,38,17.90
2018,09,29,15,39,17.90
2018,09,29,15,40,17.80
2018,09,29,15,41,17.80
2018,09,29,15,42,17.80
2018,09,29,15,43,17.80
2018,09,29,15,44,17.80
2018,09,29,15,45,17.80
2018,09,29,15,46,17.80
2018,09,29,15,47,17.80
2018,09,29,15,48,17.80
2018,09,29,15,49,17.80
2018,09,29,15,50,17.80
2018,09,29,15,51,17.80
2018,09,29,15,52,17.80
2018,09,29,15,53,17.80
2018,09,29,15,54,17.80
2018,09,29,15,55,17.80
2018,09,29,15,56,17.80
2018,09,29,15,57,17.80
2018,09,29,15,58,17.80
2018,09,29,15,59,17.80
2018,09,29,16,00,17.80
2018,09,29,16,01,17.80
2018,09,29,16,02,17.80
2018,09,29,16,03,17.80
2018,09,29,16,04,17.80
2018,09,29,16,05,17.80
2018,09,29,16,06,17.80
2018,09,29,16,07,17.80
2018,09,29,16,08,17.80
2018,09,29,16,09,17.80
2018,09,29,16,10,17.80
2018,09,29,16,11,17.80
2018,09,29,16,12,17.80
2018,09,29,16,13,17.80
2018,09,29,16,14,17.70
2018,09,29,16,15,17.70
2018,09,29,16,16,17.70
2018,09,29,16,17,17.70
2018,09,29,16,18,17.70
2018,09,29,16,19,17.70
2018,09,29,16,20,17.70
2018,09,29,16,21,17.70
2018,09,29,16,22,17.60
2018,09,29,16,23,17.60
2018,09,29,16,24,17.60
2018,09,29,16,25,17.60
2018,09,29,16,26,17.60
2018,09,29,16,27,17.60
2018,09,29,16,28,17.60
2018,09,29,16,29,17.60
2018,09,29,16,30,17.60
2018,09,29,16,31,17.50
2018,09,29,16,32,17.50
2018,09,29,16,33,17.50
2018,09,29,16,34,17.50
2018,09,29,16,35,17.50
2018,09,29,16,36,17.50
2018,09,29,16,37,17.50
2018,09,29,16,38,17.50
2018,09,29,16,39,17.50
2018,09,29,16,40,17.50
2018,09,29,16,41,17.50
2018,09,29,16,42,17.50
2018,09,29,16,43,17.50
2018,09,29,16,44,17.50
2018,09,29,16,45,17.40
2018,09,29,16,46,17.50
2018,09,29,16,47,17.40
2018,09,29,16,48,17.40
2018,09,29,16,49,17.40
2018,09,29,16,50,17.40
2018,09,29,16,51,17.40
2018,09,29,16,52,17.40
2018,09,29,16,53,17.40
2018,09,29,16,54,17.40
2018,09,29,16,55,17.40
2018,09,29,16,56,17.40
2018,09,29,16,57,17.30
2018,09,29,16,58,17.30
2018,09,29,16,59,17.30
2018,09,29,17,00,17.30
2018,09,29,17,01,17.30
2018,09,29,17,02,17.30
2018,09,29,17,03,17.30
2018,09,29,17,04,17.30
2018,09,29,17,05,17.30
2018,09,29,17,06,17.30
2018,09,29,17,07,17.30
2018,09,29,17,08,17.30
2018,09,29,17,09,17.30
2018,09,29,17,10,17.30
2018,09,29,17,11,17.30
2018,09,29,17,12,17.30
2018,09,29,17,13,17.30
2018,09,29,17,14,17.30
2018,09,29,17,15,17.30
2018,09,29,17,16,17.30
2018,09,29,17,17,17.30
2018,09,29,17,18,17.30
2018,09,29,17,19,17.20